EN

Hourly Weather Alta Floresta

Today, 26 January, Tuesday

Time Temperature Precipitation Wind Pressure Humidity
00:00 +22°C° 0 mm 0 mps 734 mmHg 94%
01:00 +23°C° 0 mm 1 mps 734 mmHg 95%
02:00 +23°C° 0 mm 1 mps 734 mmHg 96%
03:00 +23°C° 0 mm 1 mps 734 mmHg 97%
04:00 +23°C° 0 mm 1 mps 734 mmHg 97%
05:00 +21°C° 0 mm 0 mps 734 mmHg 98%
06:00 +22°C° 0 mm 0 mps 735 mmHg 95%
07:00 +24°C° 0 mm 0 mps 735 mmHg 92%
08:00 +25°C° 0 mm 0 mps 736 mmHg 89%
09:00 +26°C° 1.1 mm 0 mps 736 mmHg 87%
10:00 +28°C° 1.1 mm 0 mps 736 mmHg 84%
11:00 +29°C° 1.1 mm 0 mps 735 mmHg 82%
12:00 +30°C° 0.5 mm 0 mps 735 mmHg 76%
13:00 +31°C° 0.5 mm 0 mps 734 mmHg 70%
14:00 +31°C° 0.5 mm 0 mps 733 mmHg 65%
15:00 +30°C° 0.7 mm 0 mps 733 mmHg 73%
16:00 +29°C° 0.7 mm 0 mps 732 mmHg 80%
17:00 +28°C° 0.7 mm 0 mps 731 mmHg 88%
18:00 +26°C° 0.2 mm 0 mps 732 mmHg 88%
19:00 +25°C° 0.2 mm 0 mps 733 mmHg 89%
20:00 +23°C° 0.2 mm 0 mps 733 mmHg 89%
21:00 +23°C° 0 mm 0 mps 733 mmHg 90%
22:00 +23°C° 0 mm 0 mps 734 mmHg 90%
23:00 +23°C° 0 mm 0 mps 734 mmHg 90%

Tomorrow, 27 January, Wednesday

Time Temperature Precipitation Wind Pressure Humidity
00:00 +22°C° 0 mm 0 mps 734 mmHg 91%
01:00 +22°C° 0 mm 0 mps 734 mmHg 92%
02:00 +22°C° 0 mm 0 mps 733 mmHg 93%
03:00 +22°C° 0.1 mm 0 mps 734 mmHg 94%
04:00 +21°C° 0.1 mm 0 mps 734 mmHg 95%
05:00 +21°C° 0.1 mm 0 mps 734 mmHg 96%
06:00 +22°C° 0.1 mm 0 mps 735 mmHg 93%
07:00 +26°C° 0.1 mm 1 mps 735 mmHg 91%
08:00 +27°C° 0.1 mm 1 mps 736 mmHg 88%
09:00 +28°C° 1.1 mm 1 mps 736 mmHg 84%
10:00 +30°C° 1.1 mm 1 mps 735 mmHg 80%
11:00 +31°C° 1.1 mm 1 mps 735 mmHg 77%
12:00 +31°C° 1.6 mm 1 mps 734 mmHg 78%
13:00 +31°C° 1.6 mm 1 mps 733 mmHg 78%
14:00 +31°C° 1.6 mm 1 mps 732 mmHg 79%
15:00 +31°C° 0.4 mm 1 mps 732 mmHg 81%
16:00 +30°C° 0.4 mm 1 mps 732 mmHg 83%
17:00 +28°C° 0.4 mm 0 mps 732 mmHg 85%
18:00 +28°C° 0 mm 1 mps 732 mmHg 86%
19:00 +27°C° 0 mm 1 mps 732 mmHg 88%
20:00 +25°C° 0 mm 1 mps 733 mmHg 90%
21:00 +25°C° 0.1 mm 1 mps 733 mmHg 91%
22:00 +25°C° 0.1 mm 1 mps 733 mmHg 93%
23:00 +24°C° 0.1 mm 1 mps 734 mmHg 95%

Day after tomorrow, 28 January, Thursday

Time Temperature Precipitation Wind Pressure Humidity
00:00 +24°C° 0.2 mm 1 mps 733 mmHg 96%
01:00 +24°C° 0.2 mm 1 mps 733 mmHg 96%
02:00 +21°C° 0.2 mm 0 mps 733 mmHg 97%
03:00 +21°C° 0.2 mm 0 mps 733 mmHg 97%
04:00 +21°C° 0.2 mm 0 mps 733 mmHg 97%
05:00 +21°C° 0.2 mm 0 mps 733 mmHg 98%
06:00 +22°C° 0.7 mm 0 mps 734 mmHg 97%
07:00 +23°C° 0.7 mm 0 mps 735 mmHg 96%
08:00 +24°C° 0.7 mm 0 mps 735 mmHg 95%
09:00 +27°C° 1.9 mm 1 mps 735 mmHg 93%
10:00 +28°C° 1.9 mm 1 mps 735 mmHg 90%
11:00 +29°C° 1.9 mm 1 mps 735 mmHg 88%
12:00 +29°C° 1.6 mm 1 mps 734 mmHg 87%
13:00 +28°C° 1.6 mm 0 mps 733 mmHg 86%
14:00 +28°C° 1.6 mm 0 mps 733 mmHg 85%
15:00 +27°C° 1.3 mm 0 mps 732 mmHg 87%
16:00 +27°C° 1.3 mm 0 mps 732 mmHg 90%
17:00 +26°C° 1.3 mm 0 mps 732 mmHg 92%
18:00 +25°C° 0.1 mm 0 mps 732 mmHg 93%
19:00 +24°C° 0.1 mm 0 mps 733 mmHg 94%
20:00 +23°C° 0.1 mm 0 mps 733 mmHg 95%
21:00 +23°C° 0 mm 0 mps 734 mmHg 95%
22:00 +23°C° 0 mm 0 mps 734 mmHg 96%
23:00 +23°C° 0 mm 0 mps 734 mmHg 96%

29 January, Friday

Time Temperature Precipitation Wind Pressure Humidity
00:00 +22°C° 0 mm 0 mps 734 mmHg 96%
01:00 +22°C° 0 mm 0 mps 733 mmHg 97%
02:00 +22°C° 0 mm 0 mps 733 mmHg 97%
03:00 +22°C° 0.1 mm 0 mps 733 mmHg 97%
04:00 +22°C° 0.1 mm 0 mps 733 mmHg 97%
05:00 +22°C° 0.1 mm 0 mps 734 mmHg 97%
06:00 +23°C° 0.4 mm 0 mps 734 mmHg 96%
07:00 +24°C° 0.4 mm 0 mps 735 mmHg 95%
08:00 +24°C° 0.4 mm 0 mps 735 mmHg 93%
09:00 +25°C° 1.2 mm 0 mps 735 mmHg 93%
10:00 +25°C° 1.2 mm 0 mps 735 mmHg 92%
11:00 +26°C° 1.2 mm 0 mps 735 mmHg 91%
12:00 +29°C° 0.4 mm 1 mps 734 mmHg 85%
13:00 +30°C° 0.4 mm 1 mps 733 mmHg 78%
14:00 +31°C° 0.4 mm 1 mps 733 mmHg 72%
15:00 +30°C° 0.7 mm 1 mps 732 mmHg 78%
16:00 +30°C° 0.7 mm 1 mps 732 mmHg 84%
17:00 +27°C° 0.7 mm 0 mps 732 mmHg 89%
18:00 +26°C° 0.6 mm 0 mps 732 mmHg 91%
19:00 +25°C° 0.6 mm 0 mps 732 mmHg 92%
20:00 +23°C° 0.6 mm 0 mps 733 mmHg 93%
21:00 +23°C° 0 mm 0 mps 733 mmHg 93%
22:00 +23°C° 0 mm 0 mps 734 mmHg 93%
23:00 +23°C° 0 mm 0 mps 734 mmHg 94%

30 January, Saturday

Time Temperature Precipitation Wind Pressure Humidity
00:00 +23°C° 0 mm 0 mps 734 mmHg 95%
01:00 +23°C° 0 mm 0 mps 733 mmHg 95%
02:00 +23°C° 0 mm 0 mps 733 mmHg 96%
03:00 +22°C° 1.2 mm 0 mps 733 mmHg 96%
04:00 +22°C° 1.2 mm 0 mps 734 mmHg 97%
05:00 +24°C° 1.2 mm 1 mps 734 mmHg 98%
06:00 +24°C° 1.3 mm 1 mps 734 mmHg 98%
07:00 +25°C° 1.3 mm 1 mps 735 mmHg 98%
08:00 +25°C° 1.3 mm 1 mps 736 mmHg 98%
09:00 +26°C° 0.9 mm 1 mps 736 mmHg 95%
10:00 +27°C° 0.9 mm 1 mps 736 mmHg 93%
11:00 +28°C° 0.9 mm 1 mps 735 mmHg 90%
12:00 +29°C° 0.5 mm 1 mps 734 mmHg 81%
13:00 +31°C° 0.5 mm 1 mps 734 mmHg 72%
14:00 +32°C° 0.5 mm 1 mps 733 mmHg 63%
15:00 +32°C° 0 mm 1 mps 732 mmHg 67%
16:00 +32°C° 0 mm 1 mps 732 mmHg 72%
17:00 +29°C° 0 mm 0 mps 732 mmHg 76%
18:00 +27°C° 0.6 mm 0 mps 732 mmHg 81%
19:00 +25°C° 0.6 mm 0 mps 733 mmHg 86%
20:00 +24°C° 0.6 mm 0 mps 733 mmHg 90%
21:00 +23°C° 0.6 mm 0 mps 734 mmHg 92%
22:00 +23°C° 0.6 mm 0 mps 734 mmHg 93%
23:00 +22°C° 0.6 mm 0 mps 735 mmHg 94%

31 January, Sunday

Time Temperature Precipitation Wind Pressure Humidity
00:00 +22°C° 1.9 mm 0 mps 734 mmHg 95%
01:00 +24°C° 1.9 mm 1 mps 734 mmHg 97%
02:00 +24°C° 1.9 mm 1 mps 734 mmHg 98%
03:00 +23°C° 2.3 mm 2 mps 734 mmHg 98%
04:00 +22°C° 2.3 mm 3 mps 734 mmHg 97%
05:00 +22°C° 2.3 mm 4 mps 735 mmHg 97%
06:00 +22°C° 2 mm 3 mps 735 mmHg 97%
07:00 +22°C° 2 mm 3 mps 736 mmHg 97%
08:00 +21°C° 2 mm 2 mps 736 mmHg 98%
09:00 +24°C° 0.3 mm 2 mps 736 mmHg 93%
10:00 +25°C° 0.3 mm 1 mps 736 mmHg 89%
11:00 +27°C° 0.3 mm 1 mps 736 mmHg 85%
12:00 +28°C° 0.1 mm 1 mps 735 mmHg 80%
13:00 +30°C° 0.1 mm 1 mps 734 mmHg 75%
14:00 +32°C° 0.1 mm 1 mps 734 mmHg 70%
15:00 +29°C° 1.3 mm 0 mps 733 mmHg 77%
16:00 +28°C° 1.3 mm 0 mps 733 mmHg 84%
17:00 +27°C° 1.3 mm 0 mps 732 mmHg 91%
18:00 +25°C° 0.2 mm 0 mps 733 mmHg 92%
19:00 +24°C° 0.2 mm 0 mps 733 mmHg 93%
20:00 +23°C° 0.2 mm 0 mps 734 mmHg 93%
21:00 +22°C° 0 mm 0 mps 734 mmHg 94%
22:00 +22°C° 0 mm 0 mps 734 mmHg 95%
23:00 +22°C° 0 mm 0 mps 735 mmHg 96%
Show more